Other Public Products
Issued by NWS Grand Forks, ND

Home | Current Version | Previous Version | Text Only | Print | Product List | Glossary On
Versions: 1 2 3 4 5 6 7 8 9 10 11 12 13 14 15 16 17 18 19 20 21 22 23 24 25 26 27 28 29 30 31 32 33 34 35 36 37 38 39 40 41 42 43 44 45 46 47 48 49 50
000
FPUS83 KFGF 020131
OPUFGF
PRAIRIE TO PINES WEATHER ROUNDUP
NATIONAL WEATHER SERVICE EASTERN NORTH DAKOTA/GRAND FORKS ND
800 PM CDT SUN MAY 01 2016

 **SATELLITE DATA USED TO AUGMENT SKY COVER AT AUTOMATED STATIONS**
 *****  WEATHER ACROSS EASTERN NORTH DAKOTA  *****

CITY           SKY/WX    TMP DP  RH WIND       PRES   REMARKS
GRAND FORKS    CLEAR     63  27  25 W3        30.13F
GRAND FORKS AF CLEAR     62  24  23 N2        30.13F
GRAND CITY NWS NOT AVBL
BUXTON           N/A     63  27  26 NW2         N/A
DEVILS LAKE    CLEAR     60  29  30 W8        30.14F
FARGO          CLEAR     64  27  24 N5        30.12F
WAHPETON ARPT  CLEAR     59  27  29 NE3       30.13F
$$

 *****  WEATHER ACROSS CENTRAL AND WESTERN NORTH DAKOTA  *****

CITY           SKY/WX    TMP DP  RH WIND       PRES   REMARKS
JAMESTOWN      CLEAR     61  27  27 N3        30.14F
BISMARCK       CLEAR     62  29  28 N8        30.17F
MINOT          CLEAR     65  24  21 NW3       30.13F
MINOT AFB      CLEAR     63  25  23 NW3       30.12F
GARRISON         N/A     61  25  25 E8        30.14F
WILLISTON      SUNNY     65  31  28 W3        30.14F
DICKINSON      CLEAR     59  27  29 NW10      30.15F
HETTINGER      CLEAR     61  27  27 N7        30.19F
$$

 *****  OTHER OBSERVATIONS NORTHEAST NORTH DAKOTA  *****

CITY           SKY/WX    TMP DP  RH WIND       PRES   REMARKS
WALHALLA       FAIR      61  28  29 SE3       30.12S
LANGDON        FAIR      63  25  23 W5        30.12F
CAVALIER       FAIR      61  39  44 S3        30.12F
GRAFTON        FAIR      63  27  25 CALM      30.14F
CANDO          FAIR      59  23  25 SW8       30.14F
FORT TOTTEN      N/A     62  23  22 NW2       29.95
ROLLA          FAIR      59  27  29 N8        30.13S
RUGBY          FAIR      57  25  28 W9        30.13F
 ***** THE ABOVE OBSERVATIONS ARE NON NWS ARE NOT QUALITY
        CONTROLLED AND MAY MIS-REPORT RAIN FOR SNOW...
$$

 *****  OTHER OBSERVATIONS SOUTHEAST NORTH DAKOTA *****

CITY           SKY/WX    TMP DP  RH WIND       PRES   REMARKS
COOPERSTOWN    NOT AVBL
VALLEY CITY    FAIR      57  28  33 N3        30.16F
OAKES            N/A    N/A N/A N/A MISG        N/A
GWINNER        FAIR      61  30  31 N6        30.15S
SHEYENNE NWR     N/A     63  28  26 N5        29.95S
BUFFALO          N/A     62  23  23 NE3         N/A
WYNDMERE         N/A     63  30  29 N3          N/A
 ***** THE ABOVE OBSERVATIONS ARE NON NWS ARE NOT QUALITY
       CONTROLLED AND MAY MIS-REPORT RAIN FOR SNOW...
$$

  *****  WEATHER ACROSS NORTHERN MINNESOTA  *****

CITY           SKY/WX    TMP DP  RH WIND       PRES   REMARKS
FLAG ISLAND    CLEAR     46  37  71 S6        30.13S
WARROAD        CLEAR     52  28  40 E3        30.15S
ROSEAU         CLEAR     57  30  35 CALM      30.15S
HALLOCK        CLEAR     63  19  19 NE3       30.12S
THF RVR FALLS  CLEAR     61  25  25 NE6       30.15S
HALSTAD          N/A     62  23  22 NE5         N/A
FOSSTON        CLEAR     57  32  38 CALM      30.14F
BAUDETTE       CLEAR     54  28  36 NW6       30.14F
WASKISH        CLEAR     54  37  54 NW5       30.14S
CROOKSTON      CLEAR     61  28  29 N5        30.14S
$$
  *****  WEATHER ACROSS CENTRAL AND WEST MINNESOTA  *****

CITY           SKY/WX    TMP DP  RH WIND       PRES   REMARKS
BEMIDJI        CLEAR     56  28  34 N3        30.14S
PARK RAPIDS    CLEAR     61  27  27 E5        30.12F
WADENA         CLEAR     55  30  38 E3        30.13S
DETROIT LAKES  CLEAR     59  30  33 N5        30.14S
MOORHEAD       CLEAR     63  27  25 N5        30.14S
FERGUS FALLS   CLEAR     61  30  31 CALM      30.10S
ELBOW LAKE     FAIR      58  33  39 CALM      30.14S
MORRIS MN      CLEAR     57  30  35 N7        30.13S
STAPLES        CLEAR     55  27  33 N5        30.13S
WHEATON        CLEAR     59  34  38 NW3       30.16S
$$
  *****  WEATHER ELSEWHERE ACROSS MINNESOTA  *****

CITY           SKY/WX    TMP DP  RH WIND       PRES   REMARKS
DULUTH         PTCLDY    48  30  49 E7        30.16S
INTRNTL FALLS  CLEAR     56  27  32 E3        30.14S
ELY            CLEAR     52  30  43 S8        30.14R
CLOQUET        CLEAR     46  30  53 E6        30.15F
BRAINERD       CLEAR     58  30  34 CALM      30.13S
HIBBING        PTCLDY    54  31  41 SE8       30.12S
ALEXANDRIA     CLEAR     57  32  38 N3        30.14S
SAINT CLOUD    CLEAR     58  31  35 CALM      30.12S
MINNEAPOLIS    PTCLDY    60  32  34 NE7       30.10R
$$

  *****  WEATHER ACROSS SOUTH DAKOTA  *****

CITY           SKY/WX    TMP DP  RH WIND       PRES   REMARKS
SIOUX FALLS    PTCLDY    51  37  58 NE7       30.13S
BROOKINGS      CLEAR     55  32  41 N9        30.14S
WATERTOWN      CLEAR     56  32  40 N9        30.14F
HURON          CLEAR     57  33  40 NE7       30.16S
SISSETON         N/A     60  29  30 NE8       30.14S
ABERDEEN       CLEAR     60  34  37 NW5       30.16F
MITCHELL       CLEAR     56  39  53 N7        30.16S
PIERRE         CLEAR     57  35  43 N8        30.17F
MOBRIDGE       CLEAR     62  33  33 NW3       30.16S
RAPID CITY     CLEAR     54  31  41 N10       30.21S
$$

  *****  SOME WEATHER IN NEARBY STATES *****

CITY           SKY/WX    TMP DP  RH WIND       PRES   REMARKS
GLASGOW MT     MOSUNNY   64  33  31 W8        30.17F
GREAT FALLS MT SUNNY     62  32  32 NE8       30.18F
CHEYENNE WY    PTCLDY    39  23  52 E3        30.26S
SCOTTSBLUFF NE PTCLDY    52  29  41 N6        30.23F
OMAHA NE       MOCLDY    50  44  80 CALM      30.14R
DES MOINES IA  CLOUDY    50  44  80 NE6       30.08R
DAVENPORT IA   LGT RAIN  49  47  93 N10       30.01S FOG
CHICAGO IL     TSTM      45  44  97 CALM      29.99R FOG
EAU CLAIRE WI  CLOUDY    59  34  39 N6        30.06S
LA CROSSE WI   CLOUDY    57  36  45 CALM      30.07R
$$

  *****  SOME NATIONAL WEATHER *****

CITY           SKY/WX    TMP DP  RH WIND       PRES   REMARKS
LA GUARDIA NY  CLOUDY    46  43  87 NE12G20   30.12R
RALEIGH NC     CLOUDY    71  65  81 SW9       30.01R
ATLANTA GA     TSTM      71  67  87 W17G23    30.05R
NEW ORLEANS LA MOCLDY    73  64  73 VRB5G20   29.90R
OKLAHOMA CITY  LGT RAIN  56  45  66 N14       30.09R
ALBUQUERQUE NM LGT RAIN  45  31  58 E20G25    30.17R
SALT LAKE CITY PTSUNNY   63  25  23 E10       30.02R
LOS ANGELES CA PTSUNNY   62  53  72 W13       29.93R
BOISE ID       SUNNY     70  39  32 N10G16    30.01F
SEATTLE WA     SUNNY     77  41  27 NW13      29.97F
$$

*** WEATHER ACROSS MANITOBA...SASKATCHEWAN AND ONTARIO ***
                ***ONTARIO***

CITY           SKY/WX    TMP DP  RH WIND       PRES   REMARKS
GERALDTON      MOCLDY    45  32  61 E7        30.18F
THUNDER BAY    PTCLDY    50  32  50 S3        30.16S
SIOUX LOOKOUT  PTCLDY    54  30  40 SW5       30.12F
TORONTO        DRIZZLE   46  45  93 NE10      30.04R
BIG TROUT LK   CLOUDY    50  30  46 CALM      30.09F
PICKLE LAKE    PTCLDY    55  28  35 S8        30.10S
DRYDEN         CLEAR     57  28  33 S6        30.13S
KENORA         PTCLDY    57  28  33 S6        30.14R
$$
                *** MANITOBA***

CITY           SKY/WX    TMP DP  RH WIND       PRES   REMARKS
BRANDON        PTCLDY    64  28  25 SW9       30.09F
DAUPHIN        MOCLDY    66  27  22 SW5       30.02F
ISLAND LAKE    MOCLDY    59  30  33 W8        30.06F
PILOT MOUND      N/A     63  21  20 W5          N/A
THE PAS        PTCLDY    57  43  58 E3        30.04S
THOMPSON       NOT AVBL
WINNIPEG       MOCLDY    61  28  29 NW6       30.11F
LYNN LAKE      SUNNY     57  37  47 N3        30.00F
CHURCHILL      PTCLDY    50  37  62 S8        29.92F
GILLAM         PTCLDY    64  30  27 SW32      29.98
$$
                ***SASKATCHEWAN***

CITY           SKY/WX    TMP DP  RH WIND       PRES   REMARKS
ESTEVAN        CLOUDY    64  28  25 SW8       30.09F
KINDERSLEY     MOSUNNY   68  28  22 W10G17    30.09F
LLOYDMINSTER   MOSUNNY   70  34  26 NW13G18   30.03F
PRINCE ALBERT  PTSUNNY   66  28  24 N9        30.00R
REGINA         PTSUNNY   66  32  28 NW14G21   30.07F
YORKTON        MOCLDY    64  36  34 W13       30.02F   C1F1C2F2C3F3C4F4C5F5C6F6C7F7C8F8C9F9CaFaCbFbCcFcCdFdCe!


USA.gov is the U.S. government's official web portal to all federal, state and local government web resources and services.